244P/Scotti (2022)

Japanese version
Home page
Updated on February 21, 2021

---------------------------------------------------------------------

* Profile

* Orbital Elements

Epoch 2022 Dec. 7.0 TT = JDT 2459920.5                                          
T 2022 Nov. 17.31074 TT                                 Rudenko                 
q   3.9204033            (2000.0)            P               Q                  
n   0.09097317     Peri.   93.11376     +0.05040292     -0.99872044             
a   4.8962152      Node   353.99248     +0.89994532     +0.04720865             
e   0.1992992      Incl.    2.25937     +0.43307964     +0.01813343             
P  10.8                                                                         
From 1319 observations 2000 Nov. 29-2020 Oct. 15, mean residual 1".0.           

* Magnitudes Graph

        m1 = 3.0 + 5 log d + 20.0 log r(t - 100)

---------------------------------------------------------------------

The orbital elements are published on M.P.E.C. 2020-W26.
The magnitudes graphs are made with Comet for Windows.

---------------------------------------------------------------------

Copyright(C) Seiichi Yoshida (comet@aerith.net). All rights reserved.